Location: Thompson
(55.7500°N, 97.8670°W)
Time: 08:31:48
(UTC-05:00)

Daily predictions for brighter satellites

Satellite Brightness Start Highest point End
(mag) Time Altitude Azimuth Time Altitude Azimuth Time Altitude Azimuth
NOSS 3-1 (A) 4.1 19:52:14 10° NW 19:59:27 85° SW 20:07:39 10° SE
NOSS 3-4 (A) 4.5 19:55:17 10° WNW 20:01:31 45° N 20:08:10 10° ENE
NOSS 3-4 (C) 4.5 19:55:23 10° WNW 20:01:37 45° N 20:08:16 10° ENE
Cosmos 1707 2.8 20:00:34 10° N 20:04:31 84° ENE 20:08:28 10° SSE
Cosmos 1656 Rocket 3.8 19:59:56 10° NW 20:05:39 84° WSW 20:11:16 10° SSE
Meteor 2-9 Rocket 4.4 20:00:32 10° SSW 20:05:54 75° WNW 20:11:15 10° NNE
Elektron 1 4.3 20:04:14 10° WNW 20:09:03 76° SW 20:12:01 10° SE
NOSS 3-1 (C) 4.4 20:01:59 10° NW 20:09:10 68° SW 20:17:17 10° SSE
Cosmos 2369 Rocket 4.3 20:04:41 10° NW 20:09:31 30° WSW 20:14:18 10° SSW
GP-B 4.3 20:06:31 10° NNE 20:10:08 23° ENE 20:13:42 10° SE
COSMOS 2406 4.5 20:06:48 10° SE 20:10:38 19° E 20:14:30 10° ENE
Resurs 01 Rocket 2.0 20:07:28 10° SE 20:11:40 44° ENE 20:15:53 10° N
FENGYUN 3A 4.1 20:06:52 10° S 20:12:12 68° WSW 20:17:35 10° NNW
HJ-1C 3.3 20:10:45 10° SSE 20:14:05 71° ENE 20:17:28 10° N
FengYun 1-2 T 4.3 20:10:19 10° SSE 20:15:56 89° WSW 20:21:32 10° NNW
Cosmos 1603 4.1 20:10:29 10° SW 20:16:04 69° NW 20:21:42 10° NNE
SKYMED 2 4.0 20:12:04 10° NNE 20:16:25 71° WNW 20:20:44 10° SSW
USA 186 2.2 20:17:09 10° SE 20:19:14 24° ENE 20:21:15 10° N
Cosmos 2369 4.5 20:14:09 10° NNW 20:19:26 38° NE 20:24:35 10° ESE
SL-16 R/B 3.8 20:15:04 10° WSW 20:20:16 36° NW 20:25:31 10° NNE
Cosmos 1763 Rocket 3.9 20:15:45 10° S 20:20:30 40° ESE 20:25:21 10° NE
Cosmos 1939 Rocket 3.8 20:17:41 10° ESE 20:21:03 28° ENE 20:24:26 10° N
Meteor 1-15 Rocket 4.4 20:16:01 10° SSW 20:21:54 86° WNW 20:27:45 10° NNE
Cosmos 2228 3.3 20:17:58 10° SSE 20:22:09 47° E 20:26:19 10° NNE
Cosmos 1953 Rocket 4.2 20:17:54 10° NNW 20:22:13 61° W 20:26:29 10° S
Cosmos 2184 Rocket 4.4 20:16:25 10° SSE 20:22:20 44° E 20:28:20 10° NNE
Thor Agena Rocket 3.6 20:18:41 10° NNE 20:23:59 67° ESE 20:29:11 10° S
Cosmos 1340 Rocket 4.0 20:20:32 10° NNW 20:24:27 47° W 20:28:22 10° S
Cosmos 1378 3.7 20:23:34 10° NNW 20:27:20 62° W 20:31:04 10° S
Cosmos 1674 3.8 20:24:45 10° N 20:27:56 25° ENE 20:30:38 12° ESE
Cosmos 1606 Rocket 3.5 20:24:09 10° S 20:28:31 87° E 20:32:52 10° NNE
In-Cosmos 22 4.2 20:23:23 10° NNW 20:29:01 68° ENE 20:34:45 10° SSE
ALOS 3.5 20:24:35 10° S 20:29:04 45° W 20:33:35 10° NNW
Cosmos 2058 Rocket 3.1 20:25:37 10° S 20:29:54 59° E 20:34:15 10° NNE
Cosmos 1271 Rocket 2.9 20:26:12 10° SSW 20:30:00 78° WNW 20:33:54 10° NNE
Cosmos 1570 Rocket 4.4 20:25:02 10° SW 20:30:15 69° WNW 20:35:31 10° NNE
Cosmos 2237 Rocket 4.3 20:27:00 10° WNW 20:31:30 23° NNW 20:36:02 10° NNE
USA 267 3.3 20:27:25 10° ENE 20:34:00 84° N 20:40:35 10° W
YAOGAN 6 3.7 20:32:37 13° ESE 20:35:08 27° ENE 20:38:15 10° N
Cosmos 2208 Rocket 4.5 20:30:21 10° SW 20:35:48 70° WNW 20:41:14 10° NNE
FREGAT/IRIS 4.2 20:33:24 10° S 20:36:17 38° W 20:39:10 10° NNW
Cosmos 1943 3.4 20:34:31 10° SW 20:40:14 79° NW 20:46:00 10° NNE
Cosmos 1544 3.8 20:37:07 10° SSE 20:40:20 31° E 20:43:34 10° NNE
Cosmos 2219 Rocket 4.4 20:36:50 10° WNW 20:40:46 19° NNW 20:44:41 10° NNE
Cosmos 1805 4.2 20:40:35 10° SSE 20:43:53 27° E 20:47:13 10° NNE
Cosmos 1818 4.5 20:38:48 10° NW 20:43:56 39° NNE 20:48:17 14° E
Spot 2 Rocket 3.4 20:41:16 10° SSE 20:46:18 76° ENE 20:51:22 10° NNW
Cosmos 1356 Rocket 3.9 20:43:11 10° NNW 20:47:26 65° W 20:51:43 10° S
CZ-2D R/B 3.4 20:45:24 10° SSE 20:49:13 79° WSW 20:53:04 10° NNW
Meteor 2-13 Rocket 4.5 20:48:30 10° S 20:54:36 89° W 21:00:43 10° NNE
Cosmos 2278 4.0 20:49:36 10° NNW 20:55:11 53° NE 20:59:15 18° ESE
Cosmos 332 Rocket 4.4 20:52:55 10° SW 20:57:46 61° WNW 21:02:35 10° NNE
Meteor 1-24 Rocket 4.2 20:51:53 10° NNW 20:57:54 71° W 21:03:46 10° S
EP 1 4.2 20:55:26 10° SW 20:58:02 87° NW 21:00:41 12° NE
Cosmos 1356 3.3 20:55:05 10° NNW 20:58:36 74° ENE 21:01:37 13° SSE
KORONAS-FOTON 4.4 20:55:23 10° N 20:58:55 35° ENE 21:00:41 23° ESE
BREEZE-M DEB (TANK) 4.0 20:55:46 10° WSW 20:59:38 51° S 21:08:40 17° ESE
Cosmos 1470 4.4 21:00:53 18° ENE 21:00:53 18° ENE 21:03:12 10° NE
Cosmos 1814 Rocket 3.9 20:56:35 10° SSW 21:01:45 87° ESE 21:06:56 10° NNE
Cosmos 1125 Rocket 3.8 20:56:37 10° NNW 21:01:55 72° WSW 21:07:11 10° SSE
SJ-6B 4.4 20:58:40 10° SSW 21:02:23 36° W 21:06:03 10° NNW
Cosmos 371 Rocket 3.8 20:58:13 10° SW 21:03:04 64° WNW 21:07:58 10° NNE
Cosmos 1953 3.3 21:03:22 23° ESE 21:04:42 28° E 21:08:12 10° NNE
SPOT 5 4.1 21:04:39 18° E 21:06:07 21° NE 21:09:30 10° N
Helios 1A 3.4 21:07:26 23° SE 21:09:40 45° ENE 21:13:41 10° N
Cosmos 2322 Rocket 3.8 21:05:49 10° NNW 21:10:13 23° NNE 21:13:58 12° ENE
Helios 1B rocket 4.2 21:07:42 10° NE 21:09:25 16° ENE 21:09:25 16° ENE
ERS-1 Rocket 3.5 21:11:42 23° ESE 21:14:18 41° ENE 21:19:01 10° N
Cosmos 372 Rocket 4.4 21:10:25 10° NNW 21:15:38 64° WSW 21:20:49 10° SSE
Envisat 3.2 21:13:29 10° S 21:18:34 71° WSW 21:23:40 10° NNW
Cosmos 2084 Rocket 3.6 21:15:35 10° NW 21:19:24 50° NNE 21:20:56 30° E
Cosmos 2360 Rocket 4.2 21:16:01 10° NNW 21:19:59 19° NNE 21:23:55 10° ENE
H-2A R/B 3.0 21:20:47 24° E 21:22:31 30° ENE 21:26:54 10° N
Cosmos 1697 Rocket 3.0 21:17:03 10° NNW 21:22:37 52° NE 21:25:33 27° ESE
Cosmos 1980 Rocket 3.0 21:17:41 10° NNW 21:22:59 39° NE 21:25:45 24° E
SL-14 R/B 4.0 21:19:57 10° N 21:23:35 34° ENE 21:24:13 32° E
Spot 1 4.2 21:24:35 31° SE 21:26:17 52° ENE 21:30:19 10° N
Cosmos 2154 Rocket 3.9 21:20:58 10° S 21:27:07 68° E 21:33:22 10° NNE
Cosmos 2074 Rocket 4.3 21:25:50 10° SSW 21:32:01 71° WNW 21:38:16 10° N
Cosmos 1656 3.7 21:26:32 10° NNW 21:32:16 73° NE 21:35:12 30° SE
Cosmos 2341 Rocket 4.0 21:30:08 10° S 21:36:12 59° E 21:42:20 10° NNE
Cosmos 2333 Rocket 4.5 21:34:20 10° NW 21:38:06 18° N 21:41:53 10° NE
CZ-4B DEB 3.4 21:41:42 36° NNE 21:41:42 36° NNE 21:43:41 10° N
Cosmos 841 Rocket 3.7 21:35:56 10° SW 21:41:04 73° WNW 21:46:16 10° NNE
ATLAS 2AS CENTAUR R/B 3.0 21:33:35 10° NW 21:41:48 88° SW 21:46:19 29° SE
Cosmos 1076 Rocket 3.4 21:37:33 10° N 21:41:58 82° ENE 21:43:49 34° SSE
H-2A R/B 4.3 21:41:54 12° NE 21:42:29 12° NE 21:44:18 10° NNE
Cosmos 1766 4.0 21:39:26 10° SSW 21:43:17 53° WNW 21:47:08 10° N
Cosmos 292 Rocket 4.2 21:45:07 39° ESE 21:45:07 39° ESE 21:49:39 10° NE
SL-16 R/B 3.5 21:41:51 10° NNW 21:46:49 29° NNE 21:49:14 22° ENE
Cosmos 1758 3.2 21:44:45 25° S 21:47:02 78° E 21:51:04 10° NNE
GP-B 3.8 21:43:25 10° N 21:47:47 55° W 21:52:08 10° SSW
Resurs 01 Rocket 3.4 21:44:22 10° SSW 21:48:18 31° W 21:52:15 10° NNW
Cosmos 2084 3.0 21:45:21 10° SW 21:49:18 75° SE 21:50:17 48° ENE
USA 186 4.1 21:48:30 10° SW 21:50:06 16° W 21:51:41 10° NW
Cosmos 304 Rocket 4.2 21:46:30 10° SW 21:51:16 65° WNW 21:56:06 10° NNE
NOSS 3-4 (A) 4.1 21:46:59 10° NW 21:53:34 57° NNE 21:57:21 28° E
NOSS 3-4 (C) 4.1 21:47:05 10° NW 21:53:41 57° NNE 21:57:26 28° E
COSMOS 2406 3.1 21:48:23 10° SSW 21:54:07 80° ESE 21:59:54 10° NE
Cosmos 1939 Rocket 4.0 21:53:05 16° SSW 21:55:52 40° W 21:59:39 10° NNW
Iridium 4 Rocket 4.0 21:58:49 34° ENE 21:58:49 34° ENE 22:02:50 10° NNE
NOAA 11 4.2 21:55:37 29° SSE 21:58:32 85° WSW 22:04:01 10° NNW
Meteor 1-11 4.4 21:53:21 10° N 21:59:05 57° ENE 22:00:49 41° ESE
Cosmos 1408 Rocket 3.4 21:55:32 10° N 21:59:52 74° ENE 22:00:36 59° SE
YAOGAN 11 4.5 22:02:37 45° ENE 22:02:48 45° ENE 22:07:03 10° N
ARGOS 3.1 22:01:23 41° SE 22:03:18 75° ENE 22:08:45 10° NNW
Cosmos 1674 3.9 22:00:08 10° NNW 22:03:40 39° W 22:05:33 22° SSW
Cosmos 2369 3.9 21:58:23 10° NW 22:04:00 65° WSW 22:06:32 33° S
Landsat 7 4.5 22:04:44 37° ENE 22:05:03 37° ENE 22:09:27 10° N
Cosmos 1812 Rocket 4.2 22:00:46 10° SSW 22:05:10 56° WNW 22:09:37 10° N
Cosmos 540 Rocket 3.4 22:00:07 10° SSW 22:05:14 83° WNW 22:10:24 10° NNE
Cosmos 2366 rocket 4.2 22:03:42 39° SE 22:05:26 49° E 22:11:28 10° NNE
Cosmos 2285 Rocket 4.3 22:04:28 39° SE 22:05:59 45° ESE 22:12:03 10° NE
Cosmos 2218 Rocket 4.1 22:04:09 38° SE 22:06:14 54° E 22:12:15 10° NNE
Cosmos 2058 3.8 22:02:37 10° N 22:06:05 35° NE 22:06:05 35° NE
SAR-Lupe-4 3.6 22:08:13 73° NNE 22:08:13 73° NNE 22:11:35 10° NNW
YAOGAN 6 4.0 22:07:04 24° SW 22:08:36 36° W 22:11:59 10° NNW
MetOp-A 4.1 22:06:48 39° SSE 22:08:54 88° WSW 22:14:18 10° NNW
Cosmos 1626 3.2 22:07:23 10° N 22:10:02 34° NE 22:10:02 34° NE
USA 267 3.2 22:14:07 37° E 22:17:03 86° NNE 22:23:38 10° WNW
Meteor 2-21 4.3 22:16:28 28° S 22:19:56 79° E 22:26:05 10° NNE
Terra 2.6 22:20:29 37° ENE 22:20:29 37° ENE 22:24:47 10° N
BREEZE M DEB (TANK) 4.2 22:20:46 10° WSW 22:22:10 17° SW 22:22:10 17° SW
Cosmos 2360 4.2 22:19:30 10° NNW 22:25:15 73° NE 22:26:19 57° ESE
Cosmos 1833 Rocket 4.3 22:28:19 20° ENE 22:28:19 20° ENE 22:30:16 10° NE
Cosmos 1766 Rocket 3.9 22:21:35 10° NNW 22:25:52 61° W 22:26:37 52° SW
Cosmos 1733 3.4 22:26:16 67° NW 22:26:16 67° NW 22:29:52 10° N
Cosmos 1727 Rocket 3.9 22:20:12 10° N 22:26:32 86° E 22:28:37 46° SSE
Cosmos-2242 3.6 22:27:49 46° NE 22:27:49 46° NE 22:31:02 10° NNE
Cosmos 2219 Rocket 4.3 22:23:01 10° NNW 22:26:54 19° NNE 22:30:35 11° NE
Cosmos 1743 Rocket 3.6 22:22:44 10° N 22:26:45 67° NE 22:26:45 67° NE
Meteor 1-16 Rocket 4.2 22:28:09 53° E 22:28:09 53° E 22:33:03 10° NNE
Cosmos 1295 Rocket 4.5 22:22:26 13° SSW 22:27:53 78° WNW 22:34:01 10° N
Cosmos 1818 3.4 22:22:34 10° NW 22:28:04 89° SW 22:28:55 65° SE
SPOT 1/Viking Rocket 3.4 22:27:27 65° ESE 22:28:05 73° ENE 22:33:15 10° NNW
Cosmos 2151 3.4 22:29:47 10° N 22:33:25 55° NNE 22:33:25 55° NNE
GEOS 3 Rocket 4.1 22:28:57 10° NE 22:36:06 41° SSW 22:39:41 10° SW
SL-8 Rocket 3.9 22:31:36 32° S 22:34:38 89° W 22:40:52 10° NNE
SL-08 RB Rocket 3.6 22:35:07 77° SW 22:35:17 78° WSW 22:39:49 10° NNW
Cosmos 1470 3.2 22:36:15 61° WNW 22:36:15 61° WNW 22:40:09 10° N
Cosmos 1953 3.6 22:39:03 23° SW 22:41:02 39° WNW 22:44:54 10° N
Cosmos 2056 Rocket 4.0 22:36:05 10° NNW 22:41:23 48° NE 22:41:40 48° ENE
Cosmos 2082 Rocket 3.5 22:45:25 26° ENE 22:45:25 26° ENE 22:48:05 10° NE
SPOT 5 2.7 22:43:54 71° W 22:43:54 71° W 22:48:15 10° NNW
Helios 1B rocket 2.8 22:42:10 10° NNE 22:45:46 61° NNW 22:45:46 61° NNW
Cosmos 1703 4.2 22:46:15 10° NNW 22:49:06 45° N 22:49:06 45° N
ERS-1 Rocket 4.0 22:51:42 33° SW 22:53:08 41° W 22:57:54 10° NNW
Cosmos 2322 Rocket 2.4 22:49:56 10° NNW 22:55:31 56° NE 22:55:46 56° ENE
Meteor 2-16 Rocket 4.4 22:56:00 55° SSW 22:57:29 85° WNW 23:03:37 10° NNE
Cosmos 2123 Rocket 4.3 22:52:21 10° N 22:58:22 50° ENE 22:58:28 50° ENE
Cosmos 1500 Rocket 4.0 22:54:01 10° NNW 22:57:48 61° NNW 22:57:48 61° NNW
Cosmos 1000 Rocket 4.4 22:52:20 10° N 22:58:43 77° ENE 22:59:21 70° SE
H-2A R/B 2.3 23:01:25 58° WSW 23:01:41 59° WSW 23:06:44 10° NNW
Cosmos 2360 Rocket 3.1 23:00:21 10° NNW 23:05:36 38° NE 23:06:06 37° NE
Cosmos 1697 Rocket 3.4 23:01:14 10° NW 23:06:34 42° WSW 23:07:17 40° SW
Cosmos 1980 Rocket 2.3 23:01:45 10° NW 23:07:20 62° WSW 23:07:30 62° SW
Cosmos 1400 Rocket 4.0 23:04:52 10° NNW 23:07:45 43° NNW 23:07:45 43° NNW
CARTOSAT-1 4.4 23:10:53 47° NNW 23:10:53 47° NNW 23:14:00 10° NNW
COSMOS 2428 4.0 23:12:37 10° NNW 23:17:34 29° NNE 23:18:36 28° NE
H-2A R/B 3.3 23:19:02 37° NNE 23:19:02 37° NNE 23:21:58 10° N
Cosmos 2333 Rocket 3.9 23:19:51 10° NNW 23:24:26 24° NNE 23:26:16 21° NE
SL-16 R/B 2.3 23:25:58 10° NW 23:31:06 73° NNW 23:31:06 73° NNW
ATLAS 2AS CENTAUR R/B 3.9 23:25:08 10° NW 23:32:07 34° WSW 23:33:45 31° SW
Cosmos 1371 Rocket 4.5 23:30:23 10° NNW 23:34:51 58° WNW 23:34:51 58° WNW
Iridium 4 Rocket 4.5 23:38:36 38° WNW 23:38:36 38° WNW 23:42:59 10° N
Nimbus 7 Rocket 4.4 23:35:18 10° NNE 23:40:48 76° NNE 23:40:48 76° NNE
NOSS 3-4 (A) 3.7 23:38:03 10° NW 23:44:45 68° SW 23:44:45 68° SW
NOSS 3-4 (C) 3.7 23:38:08 10° NW 23:44:52 69° SW 23:44:52 69° SW
Cosmos 1934 Rocket 4.3 23:46:03 58° NE 23:46:03 58° NE 23:51:19 10° NNE
SL-16 R/B 4.5 23:48:21 10° NNW 23:52:24 19° NNE 23:56:07 11° ENE
